Regional Weather Roundup
Issued by NWS Albany, NY

Home | Current Version | Previous Version | Graphics & Text | Print | Product List | Glossary On
Versions: 1 2 3 4 5 6 7 8 9 10 11 12 13 14 15 16 17 18 19 20 21 22 23 24 25 26 27 28 29 30 31 32 33 34 35 36 37 38 39 40 41 42 43 44 45 46 47 48 49 50
000
ASUS41 KALY 241710
RWRALY

NEW YORK STATE HOURLY WEATHER ROUNDUP
NATIONAL WEATHER SERVICE ALBANY NY
100 PM EDT THU MAY 24 2018

NOTE: "FAIR" INDICATES FEW OR NO CLOUDS BELOW 12,000 FEET WITH NO
SIGNIFICANT WEATHER AND/OR NO OBSTRUCTIONS TO VISIBILITY.

NYZ032-033-038>043-046>054-057>066-NYZ062>081-082-084-241800-
EAST


CITY           SKY/WX    TMP DP  RH WIND       PRES   REMARKS
ALBANY         FAIR      75  39  27 NW12      30.12F
GLENS FALLS    FAIR      72  31  22 N8        30.11F
POUGHKEEPSIE   FAIR      77  42  28 N8        30.11F
NEWBURGH       SUNNY     75  46  35 VRB6      30.14F
MONTGOMERY     FAIR      77  47  34 E5        30.11F
WHITE PLAINS   FAIR      77  35  21 N10       30.13F
ISLIP          FAIR      78  36  21 N12       30.12F
NEW YORK CITY  FAIR      79  35  20 NE10      30.12F
CENTRAL PARK   FAIR      80  36  20 CALM      30.16S
$$

NYZ005>009-017-018-044>046-055-056-241800-
CENTRAL


CITY           SKY/WX    TMP DP  RH WIND       PRES   REMARKS
FULTON         FAIR      72  49  44 NW8       30.16F
SYRACUSE       FAIR      73  48  41 W8        30.15F
ROME           FAIR      72  45  37 SW9       30.16F
ELMIRA         FAIR      80  51  36 N10       30.16F
BINGHAMTON     FAIR      73  44  35 N16G23    30.19F
$$

NYZ026>034-041>043-087-241800-
NORTH


CITY           SKY/WX    TMP DP  RH WIND       PRES   REMARKS
WATERTOWN      FAIR      70  43  37 W10       30.15F
FORT DRUM      NOT AVBL
OGDENSBURG     FAIR      73  37  26 W7        30.14F
MASSENA        FAIR      69  33  26 VRB7      30.14F
SARANAC LAKE   FAIR      67  22  18 VRB6      30.13F
PLATTSBURGH    FAIR      63  32  31 SE8       30.13F
$$

NYZ001>004-010>016-019>021-085-241800-
WEST


CITY           SKY/WX    TMP DP  RH WIND       PRES   REMARKS
NIAGARA FALLS  FAIR      76  54  46 SW8       30.18F
BUFFALO        FAIR      73  51  46 SW10      30.19F
DUNKIRK        FAIR      77  47  34 VRB5      30.20F
JAMESTOWN      FAIR      75  44  33 W7        30.25S
WELLSVILLE     FAIR      75  46  35 NE14G20   30.24F
ROCHESTER      FAIR      78  49  35 VRB7G17   30.16F
PENN YAN       FAIR      77  47  34 NW10G20   30.19F
$$

             KEY
       WCI = WIND CHILL INDEX
       VSB = VISIBILITY
       HX  = HEAT INDEX
$$



USA.gov is the U.S. government's official web portal to all federal, state and local government web resources and services.